Home > Weather > Asmara > Past weeks

Flag for Eritrea Past Weather in Asmara, Eritrea — Yesterday and Last 2 Weeks

Now
84 °F

Passing clouds.


Feels Like: 92 °F
Forecast: 56 / 66 °F
Wind: 12 mph from Southeast

Location: Gizan

Current Time: Jul 25, 2016 at 3:19:43 AM

Latest Report: Jul 25, 2016 at 1:00 AM


Visibility: N/A

Pressure: 29.68 "Hg (22.78 "Hg at 2341m altitude)

Humidity: 74%

Dew Point: 75 °F

Location of AsmaraLocation

Past Weather in Asmara — Graph

°F

Asmara Temperature Yesterday

Maximum temperature yesterday: 99 °F (at 11:00 AM)
Minimum temperature yesterday: 84 °F (at 6:00 PM)
Average temperature yesterday: 92 °F

High & Low Weather Summary for the Past Weeks

 TemperatureHumidityPressure
High104 °F (Jul 21, 10:00 AM)80% (Jul 14, 6:00 AM)29.74 "Hg (Jul 14, 6:00 AM)
Low84 °F (Jul 24, 6:00 PM)14% (Jul 17, 1:00 PM)29.53 "Hg (Jul 18, 4:00 PM)
Average94 °F61%29.63 "Hg
* Reported Jul 10 1:00 AM — Jul 25 1:00 AM, Asmara, Weather by CustomWeather, © 2016

Note: Actual official high and low records may vary slightly from our data, if they occured in-between our weather recording intervals... More about our weather records

Advertising

Asmara Weather History for the Previous 24 Hours

Scroll right to see more
 ConditionsComfort  
Time TempWeatherWind HumidityBarometerVisibility
1:00 AM
Mon, Jul 25
84 °FPassing clouds.12 mph74%29.68 "HgN/A
12:00 AM90 °FPassing clouds.12 mph55%29.71 "HgN/A
11:00 PM
Sun, Jul 24
88 °FPassing clouds.9 mph62%29.71 "HgN/A
10:00 PM86 °FPassing clouds.8 mph66%29.71 "HgN/A
9:00 PM84 °FPassing clouds.15 mph70%29.71 "HgN/A
8:00 PM86 °FPassing clouds.9 mph70%29.68 "HgN/A
7:00 PM84 °FPassing clouds.7 mph74%29.68 "HgN/A
6:00 PM84 °FBroken clouds.14 mph74%29.68 "HgN/A
5:00 PM90 °FDrizzle. Partly sunny.20 mph67%29.65 "HgN/A
4:00 PM90 °FThunderstorms. Broken clouds.5 mph67%29.62 "Hg6 mi
3:00 PM95 °FScattered clouds.14 mph71%29.56 "HgN/A
2:00 PM99 °FScattered clouds.14 mph64%29.59 "HgN/A
1:00 PM99 °FPassing clouds.16 mph60%29.62 "HgN/A
12:00 PM99 °FSunny.20 mph60%29.62 "Hg10 mi
11:00 AM99 °FSunny.17 mph57%29.62 "Hg10 mi
10:00 AM97 °FPassing clouds.14 mph60%29.59 "HgN/A
9:00 AM95 °FSunny.12 mph67%29.59 "Hg10 mi
8:00 AM93 °FSunny.10 mph71%29.59 "Hg10 mi
7:00 AM93 °FSunny.6 mph71%29.56 "Hg10 mi
6:00 AM93 °FSunny.3 mph71%29.56 "Hg10 mi
5:00 AM91 °FClear.3 mph67%29.56 "Hg10 mi
4:00 AM91 °FClear.5 mph71%29.53 "Hg10 mi
3:00 AM93 °FPassing clouds.3 mph67%29.53 "HgN/A
Weather by CustomWeather, © 2016

See weather overviewHow to use our weather pages